SWR77G EDDC-LSZH

Flight info

Callsign SWR77G
Flight time 0h 58m
Altitude 38000
Route ABKIS3W ABKIS Z715 ANELA N869 TEDGO T724 RILAX
Aircraft A20N/M-SDE2E3FGHIRWXY/LB1

Departure

Time 2026-04-25 20:53
Airport Dresden Airport (EDDC)

Arrival

Time 2026-04-25 21:51
Airport Zürich Airport (LSZH)
Time Latitude Longitude Altitude Speed Heading
2026-04-25 20:29 51.12629 13.76394 753 ft 0 kts 131°
2026-04-25 20:41 51.12632 13.76389 753 ft 1 kts 131°
2026-04-25 20:41 51.12636 13.76381 749 ft 1 kts 131°
2026-04-25 20:41 51.12645 13.76365 749 ft 2 kts 128°
2026-04-25 20:42 51.12651 13.76349 751 ft 1 kts 108°
2026-04-25 20:42 51.12654 13.76337 750 ft 2 kts 92°
2026-04-25 20:42 51.12653 13.76316 750 ft 2 kts 76°
2026-04-25 20:42 51.12652 13.76305 752 ft 0 kts 69°
2026-04-25 20:47 51.12660 13.76329 751 ft 5 kts 56°
2026-04-25 20:47 51.12696 13.76384 750 ft 9 kts 40°
2026-04-25 20:47 51.12749 13.76455 753 ft 9 kts 35°
2026-04-25 20:47 51.12814 13.76451 752 ft 10 kts
2026-04-25 20:48 51.12880 13.76515 750 ft 13 kts 40°
2026-04-25 20:48 51.12957 13.76621 749 ft 16 kts 41°
2026-04-25 20:48 51.13045 13.76743 748 ft 17 kts 40°
2026-04-25 20:48 51.13142 13.76875 747 ft 20 kts 42°
2026-04-25 20:49 51.13253 13.77029 743 ft 22 kts 40°
2026-04-25 20:49 51.13381 13.77204 736 ft 26 kts 41°
2026-04-25 20:49 51.13521 13.77399 727 ft 26 kts 39°
2026-04-25 20:49 51.13661 13.77591 719 ft 22 kts 40°
2026-04-25 20:50 51.13737 13.77695 718 ft 9 kts 38°
2026-04-25 20:50 51.13779 13.77712 716 ft 0 kts 353°
2026-04-25 20:50 51.13791 13.77705 717 ft 2 kts 338°
2026-04-25 20:50 51.13798 13.77696 717 ft 0 kts 320°
2026-04-25 20:51 51.13801 13.77692 715 ft 1 kts 316°
2026-04-25 20:51 51.13819 13.77661 716 ft 7 kts 313°
2026-04-25 20:51 51.13850 13.77605 719 ft 7 kts 311°
2026-04-25 20:52 51.13899 13.77493 722 ft 15 kts 280°
2026-04-25 20:52 51.13855 13.77384 723 ft 34 kts 220°
2026-04-25 20:52 51.13243 13.76533 745 ft 130 kts 221°
2026-04-25 20:52 51.12495 13.75486 1000 ft 149 kts 224°
2026-04-25 20:53 51.11713 13.74389 1545 ft 149 kts 230°
2026-04-25 20:53 51.10976 13.73265 2216 ft 145 kts 235°
2026-04-25 20:53 51.10222 13.72130 2756 ft 156 kts 236°
2026-04-25 20:53 51.09383 13.70873 3249 ft 175 kts 233°
2026-04-25 20:54 51.08434 13.69487 3676 ft 198 kts 232°
2026-04-25 20:54 51.07354 13.67954 4192 ft 218 kts 230°
2026-04-25 20:54 51.06163 13.66298 4799 ft 237 kts 230°
2026-04-25 20:54 51.04865 13.64499 5350 ft 255 kts 229°
2026-04-25 20:55 51.03516 13.62642 6259 ft 260 kts 229°
2026-04-25 20:55 51.02150 13.60755 6755 ft 263 kts 229°
2026-04-25 20:55 51.00770 13.58841 6936 ft 267 kts 229°
2026-04-25 20:55 50.99366 13.56853 7015 ft 269 kts 230°
2026-04-25 20:56 50.97970 13.54872 7022 ft 269 kts 230°
2026-04-25 20:56 50.96575 13.52887 7025 ft 269 kts 230°
2026-04-25 20:56 50.95186 13.50912 7035 ft 267 kts 230°
2026-04-25 20:56 50.93800 13.48943 7072 ft 269 kts 230°
2026-04-25 20:57 50.92398 13.46951 7495 ft 272 kts 230°
2026-04-25 20:57 50.90988 13.44955 8459 ft 270 kts 230°
2026-04-25 20:57 50.89579 13.42968 9436 ft 273 kts 230°
2026-04-25 20:57 50.88153 13.40954 10299 ft 277 kts 230°
2026-04-25 20:58 50.86662 13.38832 10683 ft 300 kts 230°
2026-04-25 20:58 50.85072 13.36563 10950 ft 323 kts 229°
2026-04-25 20:58 50.83368 13.34161 11570 ft 331 kts 229°
2026-04-25 20:58 50.81630 13.31735 12393 ft 335 kts 229°
2026-04-25 20:59 50.79875 13.29280 13117 ft 339 kts 228°
2026-04-25 20:59 50.78091 13.26784 13890 ft 344 kts 227°
2026-04-25 20:59 50.76288 13.24265 14595 ft 347 kts 227°
2026-04-25 20:59 50.74467 13.21720 15282 ft 352 kts 228°
2026-04-25 21:00 50.72618 13.19138 15805 ft 358 kts 228°
2026-04-25 21:00 50.72007 13.18287 15895 ft 361 kts 228°
2026-04-25 21:00 50.66972 13.11285 16050 ft 361 kts 228°
2026-04-25 21:01 50.65085 13.08663 16048 ft 361 kts 229°
2026-04-25 21:01 50.63373 13.05816 16040 ft 354 kts 238°
2026-04-25 21:01 50.61988 13.02709 16045 ft 347 kts 246°
2026-04-25 21:01 50.60863 12.99366 16037 ft 346 kts 249°
2026-04-25 21:02 50.59765 12.95964 16047 ft 348 kts 248°
2026-04-25 21:02 50.58662 12.92580 16055 ft 347 kts 248°
2026-04-25 21:02 50.57555 12.89204 16053 ft 347 kts 248°
2026-04-25 21:02 50.56446 12.85832 16053 ft 347 kts 248°
2026-04-25 21:03 50.55331 12.82446 16053 ft 347 kts 248°
2026-04-25 21:03 50.54219 12.79077 16054 ft 347 kts 248°
2026-04-25 21:03 50.53107 12.75708 16054 ft 347 kts 248°
2026-04-25 21:03 50.51993 12.72339 16056 ft 347 kts 248°
2026-04-25 21:04 50.50891 12.69012 16062 ft 347 kts 248°
2026-04-25 21:04 50.49774 12.65640 16089 ft 349 kts 248°
2026-04-25 21:04 50.48647 12.62243 16533 ft 352 kts 248°
2026-04-25 21:04 50.47508 12.58820 17188 ft 355 kts 248°
2026-04-25 21:05 50.46358 12.55368 17614 ft 357 kts 249°
2026-04-25 21:05 50.45202 12.51896 18148 ft 361 kts 249°
2026-04-25 21:05 50.44034 12.48394 18645 ft 364 kts 249°
2026-04-25 21:05 50.42853 12.44856 19118 ft 367 kts 248°
2026-04-25 21:06 50.41662 12.41300 19601 ft 370 kts 248°
2026-04-25 21:06 50.40456 12.37700 20088 ft 373 kts 248°
2026-04-25 21:06 50.39257 12.34128 20577 ft 377 kts 248°
2026-04-25 21:06 50.38429 12.31665 20917 ft 379 kts 248°
2026-04-25 21:07 50.36789 12.26793 21595 ft 384 kts 248°
2026-04-25 21:07 50.35534 12.23073 22129 ft 387 kts 247°
2026-04-25 21:07 50.33971 12.19571 22661 ft 400 kts 234°
2026-04-25 21:07 50.32100 12.16324 23222 ft 404 kts 233°
2026-04-25 21:08 50.30191 12.13084 23761 ft 407 kts 233°
2026-04-25 21:08 50.28262 12.09819 24220 ft 410 kts 233°
2026-04-25 21:08 50.26322 12.06530 24698 ft 412 kts 233°
2026-04-25 21:08 50.24377 12.03226 25156 ft 414 kts 232°
2026-04-25 21:09 50.20470 11.96585 26124 ft 416 kts 232°
2026-04-25 21:09 50.18507 11.93254 26625 ft 417 kts 232°
2026-04-25 21:09 50.16543 11.89926 27144 ft 417 kts 232°
2026-04-25 21:10 50.14577 11.86599 27644 ft 417 kts 232°
2026-04-25 21:10 50.12612 11.83277 28185 ft 416 kts 232°
2026-04-25 21:10 50.10650 11.79964 28720 ft 415 kts 232°
2026-04-25 21:10 50.08701 11.76675 28946 ft 422 kts 232°
2026-04-25 21:11 50.04632 11.69813 29111 ft 439 kts 232°
2026-04-25 21:11 50.02546 11.66308 29379 ft 443 kts 232°
2026-04-25 21:11 50.00445 11.62788 29733 ft 445 kts 232°
2026-04-25 21:12 49.98337 11.59261 30071 ft 447 kts 232°
2026-04-25 21:12 49.96214 11.55712 30368 ft 449 kts 232°
2026-04-25 21:12 49.94075 11.52140 30666 ft 451 kts 232°
2026-04-25 21:12 49.92657 11.49775 30860 ft 453 kts 232°
2026-04-25 21:13 49.89806 11.45025 31244 ft 455 kts 232°
2026-04-25 21:13 49.87645 11.41432 31613 ft 455 kts 232°
2026-04-25 21:13 49.85484 11.37841 31956 ft 455 kts 232°
2026-04-25 21:13 49.83324 11.34259 32304 ft 454 kts 232°
2026-04-25 21:14 49.81164 11.30683 32684 ft 454 kts 232°
2026-04-25 21:14 49.79000 11.27104 33068 ft 453 kts 232°
2026-04-25 21:14 49.76851 11.23555 33421 ft 452 kts 232°
2026-04-25 21:14 49.74727 11.20052 33772 ft 451 kts 232°
2026-04-25 21:15 49.72576 11.16508 34109 ft 451 kts 232°
2026-04-25 21:15 49.70422 11.12965 34404 ft 450 kts 232°
2026-04-25 21:15 49.68281 11.09449 34695 ft 449 kts 232°
2026-04-25 21:15 49.66134 11.05927 34955 ft 448 kts 232°
2026-04-25 21:16 49.64007 11.02441 35284 ft 446 kts 231°
2026-04-25 21:16 49.61902 10.98997 35525 ft 445 kts 231°
2026-04-25 21:16 49.59776 10.95524 35773 ft 445 kts 231°
2026-04-25 21:16 49.57652 10.92059 36012 ft 444 kts 231°
2026-04-25 21:17 49.55530 10.88601 36243 ft 444 kts 232°
2026-04-25 21:17 49.53410 10.85153 36469 ft 443 kts 232°
2026-04-25 21:17 49.51294 10.81711 36684 ft 443 kts 232°
2026-04-25 21:17 49.49167 10.78287 36904 ft 442 kts 231°
2026-04-25 21:18 49.47018 10.74903 37134 ft 442 kts 230°
2026-04-25 21:18 49.44864 10.71536 37140 ft 441 kts 230°
2026-04-25 21:18 49.40568 10.64815 37138 ft 440 kts 231°
2026-04-25 21:19 49.36361 10.58006 37138 ft 439 kts 231°
2026-04-25 21:19 49.32122 10.51222 36966 ft 441 kts 230°
2026-04-25 21:20 49.29973 10.47944 36589 ft 442 kts 229°
2026-04-25 21:20 49.29231 10.46820 36464 ft 441 kts 229°
2026-04-25 21:20 49.25600 10.41323 35810 ft 441 kts 229°
2026-04-25 21:20 49.23416 10.38007 35442 ft 442 kts 229°
2026-04-25 21:21 49.21247 10.34675 35081 ft 442 kts 230°
2026-04-25 21:21 49.19084 10.31314 34706 ft 443 kts 230°
2026-04-25 21:21 49.16944 10.27984 34352 ft 443 kts 230°
2026-04-25 21:21 49.14780 10.24613 33972 ft 443 kts 231°
2026-04-25 21:22 49.12782 10.21041 33563 ft 442 kts 236°
2026-04-25 21:22 49.11514 10.18616 33288 ft 443 kts 236°
2026-04-25 21:22 49.09586 10.14942 32889 ft 443 kts 235°
2026-04-25 21:22 49.07651 10.11267 32481 ft 445 kts 235°
2026-04-25 21:23 49.05702 10.07576 32210 ft 447 kts 235°
2026-04-25 21:23 49.03747 10.03881 32151 ft 448 kts 235°
2026-04-25 21:23 48.99815 9.96470 32152 ft 449 kts 235°
2026-04-25 21:24 48.95883 9.89079 32152 ft 449 kts 235°
2026-04-25 21:24 48.91942 9.81691 32150 ft 449 kts 235°
2026-04-25 21:25 48.87999 9.74317 32140 ft 449 kts 235°
2026-04-25 21:25 48.84071 9.66994 32140 ft 450 kts 235°
2026-04-25 21:26 48.80118 9.59650 32138 ft 448 kts 235°
2026-04-25 21:26 48.76170 9.52330 32140 ft 448 kts 235°
2026-04-25 21:27 48.72235 9.45055 32129 ft 448 kts 235°
2026-04-25 21:27 48.68277 9.37754 32132 ft 448 kts 234°
2026-04-25 21:28 48.64310 9.30458 32155 ft 448 kts 234°
2026-04-25 21:28 48.59901 9.23729 31959 ft 454 kts 223°
2026-04-25 21:29 48.57363 9.20853 31539 ft 455 kts 220°
2026-04-25 21:29 48.54811 9.18022 30865 ft 455 kts 220°
2026-04-25 21:29 48.52263 9.15191 30125 ft 455 kts 220°
2026-04-25 21:29 48.49723 9.12363 29261 ft 451 kts 220°
2026-04-25 21:30 48.47224 9.09583 28437 ft 443 kts 220°
2026-04-25 21:30 48.44797 9.06884 27651 ft 435 kts 220°
2026-04-25 21:30 48.42380 9.04196 26876 ft 428 kts 220°
2026-04-25 21:30 48.40766 9.02403 26360 ft 423 kts 220°
2026-04-25 21:31 48.37650 8.98943 25390 ft 416 kts 220°
2026-04-25 21:31 48.35321 8.96360 24675 ft 415 kts 220°
2026-04-25 21:31 48.33001 8.93788 23983 ft 413 kts 220°
2026-04-25 21:31 48.30698 8.91241 23213 ft 409 kts 220°
2026-04-25 21:32 48.28426 8.88716 22417 ft 403 kts 220°
2026-04-25 21:32 48.26193 8.86223 21634 ft 397 kts 220°
2026-04-25 21:32 48.23986 8.83760 20872 ft 392 kts 219°
2026-04-25 21:32 48.21811 8.81338 20133 ft 387 kts 219°
2026-04-25 21:33 48.19686 8.78977 19419 ft 383 kts 219°
2026-04-25 21:33 48.17557 8.76615 18719 ft 378 kts 218°
2026-04-25 21:33 48.15465 8.74309 18322 ft 369 kts 218°
2026-04-25 21:33 48.13377 8.72032 18182 ft 374 kts 218°
2026-04-25 21:34 48.11269 8.69743 18161 ft 374 kts 218°
2026-04-25 21:34 48.09157 8.67453 18162 ft 376 kts 218°
2026-04-25 21:34 48.07037 8.65153 18162 ft 376 kts 218°
2026-04-25 21:34 48.04918 8.62854 18164 ft 376 kts 218°
2026-04-25 21:35 48.02827 8.60587 18165 ft 376 kts 218°
2026-04-25 21:35 48.00708 8.58293 18165 ft 376 kts 218°
2026-04-25 21:35 47.98591 8.56002 18072 ft 376 kts 218°
2026-04-25 21:35 47.96455 8.53746 17649 ft 375 kts 213°
2026-04-25 21:36 47.94040 8.52252 16928 ft 376 kts 194°
2026-04-25 21:36 47.91442 8.51998 16168 ft 374 kts 174°
2026-04-25 21:36 47.88889 8.52645 15428 ft 371 kts 169°
2026-04-25 21:36 47.86405 8.53597 14702 ft 368 kts 161°
2026-04-25 21:37 47.84006 8.54878 13984 ft 365 kts 160°
2026-04-25 21:37 47.82426 8.55728 13460 ft 362 kts 160°
2026-04-25 21:37 47.79272 8.57427 12417 ft 358 kts 160°
2026-04-25 21:37 47.76942 8.58681 11656 ft 354 kts 160°
2026-04-25 21:38 47.74660 8.59908 10936 ft 351 kts 160°
2026-04-25 21:38 47.72380 8.61167 10207 ft 348 kts 159°
2026-04-25 21:38 47.70124 8.62453 9439 ft 344 kts 159°
2026-04-25 21:38 47.67898 8.63730 8661 ft 341 kts 159°
2026-04-25 21:39 47.65701 8.65003 7906 ft 337 kts 159°
2026-04-25 21:39 47.63519 8.66272 7160 ft 334 kts 159°
2026-04-25 21:39 47.61375 8.67524 6513 ft 327 kts 159°
2026-04-25 21:39 47.59309 8.68728 6250 ft 309 kts 159°
2026-04-25 21:40 47.57305 8.69888 6165 ft 312 kts 159°
2026-04-25 21:40 47.55312 8.71038 6156 ft 311 kts 159°
2026-04-25 21:40 47.53298 8.72200 6158 ft 311 kts 159°
2026-04-25 21:40 47.51262 8.73372 6157 ft 312 kts 159°
2026-04-25 21:41 47.49256 8.74567 6156 ft 311 kts 157°
2026-04-25 21:41 47.47284 8.75874 6157 ft 311 kts 156°
2026-04-25 21:41 47.45301 8.77189 6156 ft 313 kts 156°
2026-04-25 21:41 47.43320 8.78495 6157 ft 311 kts 156°
2026-04-25 21:42 47.41343 8.79803 6157 ft 311 kts 156°
2026-04-25 21:42 47.39368 8.81106 6158 ft 311 kts 156°
2026-04-25 21:42 47.37392 8.82409 6156 ft 311 kts 156°
2026-04-25 21:42 47.35414 8.83713 6155 ft 311 kts 156°
2026-04-25 21:43 47.33436 8.85016 6154 ft 311 kts 156°
2026-04-25 21:43 47.31484 8.86303 6155 ft 311 kts 156°
2026-04-25 21:43 47.29507 8.87607 6153 ft 311 kts 156°
2026-04-25 21:43 47.27530 8.88910 6152 ft 311 kts 156°
2026-04-25 21:44 47.25550 8.90214 6150 ft 311 kts 156°
2026-04-25 21:44 47.23508 8.91263 6148 ft 310 kts 172°
2026-04-25 21:44 47.19486 8.89687 6148 ft 309 kts 220°
2026-04-25 21:45 47.18154 8.87252 6150 ft 307 kts 244°
2026-04-25 21:45 47.17702 8.85245 6151 ft 307 kts 261°
2026-04-25 21:45 47.18002 8.81183 6151 ft 307 kts 293°
2026-04-25 21:45 47.19078 8.78454 6151 ft 307 kts 302°
2026-04-25 21:46 47.20217 8.75800 6154 ft 307 kts 302°
2026-04-25 21:46 47.21363 8.73152 6154 ft 307 kts 306°
2026-04-25 21:46 47.22861 8.70913 6156 ft 308 kts 323°
2026-04-25 21:46 47.24670 8.69287 6110 ft 300 kts 333°
2026-04-25 21:47 47.26525 8.67994 5730 ft 289 kts 336°
2026-04-25 21:47 47.28322 8.66778 5318 ft 279 kts 335°
2026-04-25 21:47 47.30017 8.65624 4923 ft 260 kts 335°
2026-04-25 21:47 47.31576 8.64557 4550 ft 235 kts 335°
2026-04-25 21:48 47.33001 8.63583 4213 ft 220 kts 336°
2026-04-25 21:48 47.34356 8.62656 3937 ft 205 kts 336°
2026-04-25 21:48 47.35599 8.61805 3625 ft 188 kts 337°
2026-04-25 21:48 47.36825 8.60968 3377 ft 201 kts 337°
2026-04-25 21:49 47.38035 8.60136 3061 ft 183 kts 337°
2026-04-25 21:49 47.39124 8.59389 2816 ft 163 kts 337°
2026-04-25 21:49 47.40088 8.58729 2583 ft 147 kts 337°
2026-04-25 21:49 47.40975 8.58122 2364 ft 135 kts 336°
2026-04-25 21:50 47.41812 8.57579 2166 ft 125 kts 338°
2026-04-25 21:50 47.42630 8.57027 1982 ft 130 kts 336°
2026-04-25 21:50 47.43464 8.56447 1789 ft 137 kts 335°
2026-04-25 21:50 47.44049 8.56035 1633 ft 143 kts 335°
2026-04-25 21:51 47.45268 8.55195 1417 ft 143 kts 335°
2026-04-25 21:51 47.46039 8.54669 1386 ft 74 kts 335°
2026-04-25 21:51 47.46283 8.54485 1384 ft 23 kts 335°
2026-04-25 21:51 47.46385 8.54421 1385 ft 21 kts 349°
2026-04-25 21:52 47.46463 8.54526 1381 ft 14 kts 64°
2026-04-25 21:52 47.46469 8.54544 1382 ft 0 kts 64°
2026-04-25 21:54 47.46476 8.54581 1386 ft 9 kts 85°
2026-04-25 21:54 47.46411 8.54674 1383 ft 17 kts 153°
2026-04-25 21:54 47.46289 8.54754 1383 ft 20 kts 155°
2026-04-25 21:55 47.46163 8.54841 1386 ft 21 kts 152°
2026-04-25 21:55 47.46044 8.54924 1388 ft 17 kts 155°
2026-04-25 21:55 47.45950 8.54988 1394 ft 13 kts 155°
2026-04-25 21:55 47.45892 8.55029 1395 ft 0 kts 155°
2026-04-25 21:56 47.45891 8.55030 1396 ft 1 kts 155°
2026-04-25 21:56 47.45844 8.55063 1384 ft 10 kts 154°
2026-04-25 21:56 47.45774 8.55111 1403 ft 12 kts 155°
2026-04-25 21:57 47.45737 8.55136 1398 ft 1 kts 154°
2026-04-25 21:57 47.45725 8.55145 1397 ft 3 kts 154°
2026-04-25 21:57 47.45700 8.55162 1401 ft 5 kts 154°
2026-04-25 21:57 47.45665 8.55187 1400 ft 6 kts 154°
2026-04-25 21:58 47.45619 8.55219 1400 ft 8 kts 154°
2026-04-25 21:58 47.45568 8.55256 1402 ft 5 kts 154°
2026-04-25 21:58 47.45544 8.55294 1404 ft 5 kts 111°
2026-04-25 21:58 47.45536 8.55354 1399 ft 6 kts 97°
2026-04-25 21:59 47.45531 8.55411 1407 ft 5 kts 97°
2026-04-25 21:59 47.45528 8.55458 1407 ft 4 kts 94°
2026-04-25 21:59 47.45526 8.55499 1410 ft 4 kts 95°
2026-04-25 22:00 47.45521 8.55586 1410 ft 5 kts 96°
2026-04-25 22:00 47.45515 8.55668 1410 ft 12 kts 96°
2026-04-25 22:00 47.45505 8.55807 1413 ft 16 kts 97°
2026-04-25 22:00 47.45498 8.55895 1410 ft 0 kts 97°
2026-04-25 22:01 47.45495 8.55930 1407 ft 7 kts 97°
2026-04-25 22:01 47.45489 8.56015 1413 ft 8 kts 94°
2026-04-25 22:01 47.45466 8.56067 1411 ft 4 kts 171°
2026-04-25 22:01 47.45441 8.56065 1409 ft 6 kts 185°
2026-04-25 22:02 47.45412 8.56062 1410 ft 5 kts 186°
2026-04-25 22:02 47.45407 8.56061 1409 ft 0 kts 186°